MinXSS 2 (43807 NORAD) Tracking and Keplerian Element Data

This shows tracking and keplerian element data for the satellite.

Feedback or suggestion? Click here.




ElementValue
Catalog43807
NameMinXSS 2
Epoch Orbit404
Epoch Day3.80224341
Epoch Year2019
RAAN77.6616
Inclination97.7643
Eccentricity0.0013756
Argument of Perigee153.9773
Mean Anonmoly206.2142
Mean Motion14.95262423
Decay Rate4.9E-06
L11 43807U 18099BB 19003.80224341 .00000490 00000-0 49762-4 0 9991
L22 43807 97.7643 77.6616 0013756 153.9773 206.2142 14.95262423 4043

Live tracking and technical data element details for MinXSS 2 (NORAD 43807). MinXSS 2 can be tracked NOW for your location showing map with azimuth and elevation plus other details from your city location.

Track the satellite on the map from your city or location and see movement details for azimuth, elevation, latitude, longitude, range, height, and movement on the map or in text.







IsCatalogInMostPopularTable: catalog: 43807, numindb: 18
Update: records affected: 1



GetName: 43807 MinXSS 2

Hit Count: updated at: Thu, 17 Jan 2019 15:05:50 GMT